Year,Month,Day,Hour,Minute,Value (Times are PST for temperature in C)
2019,07,28,00,00,18.50
2019,07,28,00,01,18.60
2019,07,28,00,02,18.60
2019,07,28,00,03,18.60
2019,07,28,00,04,18.60
2019,07,28,00,05,18.60
2019,07,28,00,06,18.60
2019,07,28,00,07,18.60
2019,07,28,00,08,18.60
2019,07,28,00,09,18.60
2019,07,28,00,10,18.50
2019,07,28,00,11,18.50
2019,07,28,00,12,18.50
2019,07,28,00,13,18.50
2019,07,28,00,14,18.40
2019,07,28,00,15,18.40
2019,07,28,00,16,18.40
2019,07,28,00,17,18.30
2019,07,28,00,18,18.30
2019,07,28,00,19,18.30
2019,07,28,00,20,18.20
2019,07,28,00,21,18.20
2019,07,28,00,22,18.20
2019,07,28,00,23,18.10
2019,07,28,00,24,18.10
2019,07,28,00,25,18.10
2019,07,28,00,26,18.00
2019,07,28,00,27,18.00
2019,07,28,00,28,18.00
2019,07,28,00,29,18.00
2019,07,28,00,30,17.90
2019,07,28,00,31,17.90
2019,07,28,00,32,17.90
2019,07,28,00,33,17.90
2019,07,28,00,34,17.80
2019,07,28,00,35,17.80
2019,07,28,00,36,17.80
2019,07,28,00,37,17.80
2019,07,28,00,38,17.80
2019,07,28,00,39,17.80
2019,07,28,00,40,17.80
2019,07,28,00,41,17.80
2019,07,28,00,42,17.80
2019,07,28,00,43,17.80
2019,07,28,00,44,17.70
2019,07,28,00,45,17.70
2019,07,28,00,46,17.70
2019,07,28,00,47,17.70
2019,07,28,00,48,17.70
2019,07,28,00,49,17.60
2019,07,28,00,50,17.60
2019,07,28,00,51,17.60
2019,07,28,00,52,17.60
2019,07,28,00,53,17.60
2019,07,28,00,54,17.50
2019,07,28,00,55,17.60
2019,07,28,00,56,17.60
2019,07,28,00,57,17.60
2019,07,28,00,58,17.60
2019,07,28,00,59,17.60
2019,07,28,01,00,17.60
2019,07,28,01,01,17.60
2019,07,28,01,02,17.60
2019,07,28,01,03,17.60
2019,07,28,01,04,17.60
2019,07,28,01,05,17.60
2019,07,28,01,06,17.70
2019,07,28,01,07,17.70
2019,07,28,01,08,17.70
2019,07,28,01,09,17.70
2019,07,28,01,10,17.70
2019,07,28,01,11,17.70
2019,07,28,01,12,17.70
2019,07,28,01,13,17.70
2019,07,28,01,14,17.70
2019,07,28,01,15,17.70
2019,07,28,01,16,17.70
2019,07,28,01,17,17.60
2019,07,28,01,18,17.60
2019,07,28,01,19,17.60
2019,07,28,01,20,17.60
2019,07,28,01,21,17.60
2019,07,28,01,22,17.60
2019,07,28,01,23,17.60
2019,07,28,01,24,17.60
2019,07,28,01,25,17.60
2019,07,28,01,26,17.60
2019,07,28,01,27,17.60
2019,07,28,01,28,17.60
2019,07,28,01,29,17.60
2019,07,28,01,30,17.60
2019,07,28,01,31,17.60
2019,07,28,01,32,17.60
2019,07,28,01,33,17.60
2019,07,28,01,34,17.60
2019,07,28,01,35,17.60
2019,07,28,01,36,17.50
2019,07,28,01,37,17.50
2019,07,28,01,38,17.50
2019,07,28,01,39,17.50
2019,07,28,01,40,17.50
2019,07,28,01,41,17.50
2019,07,28,01,42,17.50
2019,07,28,01,43,17.50
2019,07,28,01,44,17.50
2019,07,28,01,45,17.40
2019,07,28,01,46,17.40
2019,07,28,01,47,17.40
2019,07,28,01,48,17.40
2019,07,28,01,49,17.40
2019,07,28,01,50,17.40
2019,07,28,01,51,17.40
2019,07,28,01,52,17.40
2019,07,28,01,53,17.40
2019,07,28,01,54,17.40
2019,07,28,01,55,17.40
2019,07,28,01,56,17.30
2019,07,28,01,57,17.30
2019,07,28,01,58,17.30
2019,07,28,01,59,17.30
2019,07,28,02,00,17.30
2019,07,28,02,01,17.30
2019,07,28,02,02,17.30
2019,07,28,02,03,17.30
2019,07,28,02,04,17.30
2019,07,28,02,05,17.20
2019,07,28,02,06,17.20
2019,07,28,02,07,17.20
2019,07,28,02,08,17.20
2019,07,28,02,09,17.20
2019,07,28,02,10,17.20
2019,07,28,02,11,17.20
2019,07,28,02,12,17.20
2019,07,28,02,13,17.20
2019,07,28,02,14,17.20
2019,07,28,02,15,17.20
2019,07,28,02,16,17.20
2019,07,28,02,17,17.20
2019,07,28,02,18,17.20
2019,07,28,02,19,17.20
2019,07,28,02,20,17.10
2019,07,28,02,21,17.10
2019,07,28,02,22,17.10
2019,07,28,02,23,17.10
2019,07,28,02,24,17.10
2019,07,28,02,25,17.10
2019,07,28,02,26,17.00
2019,07,28,02,27,17.00
2019,07,28,02,28,17.00
2019,07,28,02,29,16.90
2019,07,28,02,30,16.90
2019,07,28,02,31,16.90
2019,07,28,02,32,16.90
2019,07,28,02,33,16.80
2019,07,28,02,34,16.80
2019,07,28,02,35,16.80
2019,07,28,02,36,16.80
2019,07,28,02,37,16.80
2019,07,28,02,38,16.80
2019,07,28,02,39,16.70
2019,07,28,02,40,16.70
2019,07,28,02,41,16.70
2019,07,28,02,42,16.70
2019,07,28,02,43,16.70
2019,07,28,02,44,16.60
2019,07,28,02,45,16.60
2019,07,28,02,46,16.60
2019,07,28,02,47,16.60
2019,07,28,02,48,16.60
2019,07,28,02,49,16.50
2019,07,28,02,50,16.50
2019,07,28,02,51,16.50
2019,07,28,02,52,16.40
2019,07,28,02,53,16.40
2019,07,28,02,54,16.40
2019,07,28,02,55,16.40
2019,07,28,02,56,16.30
2019,07,28,02,57,16.30
2019,07,28,02,58,16.30
2019,07,28,02,59,16.30
2019,07,28,03,00,16.30
2019,07,28,03,01,16.30
2019,07,28,03,02,16.30
2019,07,28,03,03,16.20
2019,07,28,03,04,16.20
2019,07,28,03,05,16.20
2019,07,28,03,06,16.20
2019,07,28,03,07,16.20
2019,07,28,03,08,16.20
2019,07,28,03,09,16.20
2019,07,28,03,10,16.20
2019,07,28,03,11,16.20
2019,07,28,03,12,16.20
2019,07,28,03,13,16.20
2019,07,28,03,14,16.20
2019,07,28,03,15,16.20
2019,07,28,03,16,16.20
2019,07,28,03,17,16.10
2019,07,28,03,18,16.10
2019,07,28,03,19,16.10
2019,07,28,03,20,16.10
2019,07,28,03,21,16.10
2019,07,28,03,22,16.10
2019,07,28,03,23,16.10
2019,07,28,03,24,16.10
2019,07,28,03,25,16.10
2019,07,28,03,26,16.10
2019,07,28,03,27,16.10
2019,07,28,03,28,16.10
2019,07,28,03,29,16.00
2019,07,28,03,30,16.00
2019,07,28,03,31,16.00
2019,07,28,03,32,16.00
2019,07,28,03,33,16.00
2019,07,28,03,34,16.00
2019,07,28,03,35,16.00
2019,07,28,03,36,16.00
2019,07,28,03,37,16.00
2019,07,28,03,38,16.00
2019,07,28,03,39,16.00
2019,07,28,03,40,16.00
2019,07,28,03,41,16.00
2019,07,28,03,42,16.00
2019,07,28,03,43,16.00
2019,07,28,03,44,16.00
2019,07,28,03,45,16.00
2019,07,28,03,46,16.00
2019,07,28,03,47,16.00
2019,07,28,03,48,16.00
2019,07,28,03,49,16.00
2019,07,28,03,50,16.00
2019,07,28,03,51,16.00
2019,07,28,03,52,16.00
2019,07,28,03,53,16.00
2019,07,28,03,54,16.00
2019,07,28,03,55,16.00
2019,07,28,03,56,16.00
2019,07,28,03,57,16.00
2019,07,28,03,58,16.00
2019,07,28,03,59,16.00
2019,07,28,04,00,16.00
2019,07,28,04,01,16.00
2019,07,28,04,02,16.00
2019,07,28,04,03,15.90
2019,07,28,04,04,15.90
2019,07,28,04,05,15.90
2019,07,28,04,06,15.90
2019,07,28,04,07,15.90
2019,07,28,04,08,15.90
2019,07,28,04,09,15.90
2019,07,28,04,10,15.80
2019,07,28,04,11,15.80
2019,07,28,04,12,15.80
2019,07,28,04,13,15.80
2019,07,28,04,14,15.80
2019,07,28,04,15,15.70
2019,07,28,04,16,15.70
2019,07,28,04,17,15.70
2019,07,28,04,18,15.70
2019,07,28,04,19,15.70
2019,07,28,04,20,15.60
2019,07,28,04,21,15.60
2019,07,28,04,22,15.60
2019,07,28,04,23,15.60
2019,07,28,04,24,15.60
2019,07,28,04,25,15.60
2019,07,28,04,26,15.60
2019,07,28,04,27,15.60
2019,07,28,04,28,15.60
2019,07,28,04,29,15.60
2019,07,28,04,30,15.60
2019,07,28,04,31,15.50
2019,07,28,04,32,15.50
2019,07,28,04,33,15.50
2019,07,28,04,34,15.50
2019,07,28,04,35,15.50
2019,07,28,04,36,15.50
2019,07,28,04,37,15.50
2019,07,28,04,38,15.40
2019,07,28,04,39,15.40
2019,07,28,04,40,15.40
2019,07,28,04,41,15.40
2019,07,28,04,42,15.40
2019,07,28,04,43,15.40
2019,07,28,04,44,15.40
2019,07,28,04,45,15.50
2019,07,28,04,46,15.50
2019,07,28,04,47,15.50
2019,07,28,04,48,15.50
2019,07,28,04,49,15.50
2019,07,28,04,50,15.50
2019,07,28,04,51,15.50
2019,07,28,04,52,15.50
2019,07,28,04,53,15.50
2019,07,28,04,54,15.50
2019,07,28,04,55,15.40
2019,07,28,04,56,15.40
2019,07,28,04,57,15.40
2019,07,28,04,58,15.40
2019,07,28,04,59,15.40
2019,07,28,05,00,15.40
2019,07,28,05,01,15.40
2019,07,28,05,02,15.40
2019,07,28,05,03,15.40
2019,07,28,05,04,15.40
2019,07,28,05,05,15.40
2019,07,28,05,06,15.40
2019,07,28,05,07,15.40
2019,07,28,05,08,15.40
2019,07,28,05,09,15.40
2019,07,28,05,10,15.40
2019,07,28,05,11,15.40
2019,07,28,05,12,15.40
2019,07,28,05,13,15.40
2019,07,28,05,14,15.30
2019,07,28,05,15,15.30
2019,07,28,05,16,15.30
2019,07,28,05,17,15.30
2019,07,28,05,18,15.30
2019,07,28,05,19,15.30
2019,07,28,05,20,15.30
2019,07,28,05,21,15.30
2019,07,28,05,22,15.30
2019,07,28,05,23,15.20
2019,07,28,05,24,15.20
2019,07,28,05,25,15.20
2019,07,28,05,26,15.20
2019,07,28,05,27,15.20
2019,07,28,05,28,15.10
2019,07,28,05,29,15.10
2019,07,28,05,30,15.10
2019,07,28,05,31,15.00
2019,07,28,05,32,14.90
2019,07,28,05,33,14.90
2019,07,28,05,34,14.80
2019,07,28,05,35,14.80
2019,07,28,05,36,14.70
2019,07,28,05,37,14.70
2019,07,28,05,38,14.70
2019,07,28,05,39,14.60
2019,07,28,05,40,14.60
2019,07,28,05,41,14.60
2019,07,28,05,42,14.60
2019,07,28,05,43,14.60
2019,07,28,05,44,14.60
2019,07,28,05,45,14.60
2019,07,28,05,46,14.60
2019,07,28,05,47,14.60
2019,07,28,05,48,14.60
2019,07,28,05,49,14.60
2019,07,28,05,50,14.60
2019,07,28,05,51,14.60
2019,07,28,05,52,14.50
2019,07,28,05,53,14.50
2019,07,28,05,54,14.50
2019,07,28,05,55,14.50
2019,07,28,05,56,14.50
2019,07,28,05,57,14.50
2019,07,28,05,58,14.50
2019,07,28,05,59,14.40
2019,07,28,06,00,14.40
2019,07,28,06,01,14.40
2019,07,28,06,02,14.40
2019,07,28,06,03,14.40
2019,07,28,06,04,14.40
2019,07,28,06,05,14.40
2019,07,28,06,06,14.40
2019,07,28,06,07,14.40
2019,07,28,06,08,14.40
2019,07,28,06,09,14.40
2019,07,28,06,10,14.40
2019,07,28,06,11,14.40
2019,07,28,06,12,14.40
2019,07,28,06,13,14.30
2019,07,28,06,14,14.30
2019,07,28,06,15,14.30
2019,07,28,06,16,14.30
2019,07,28,06,17,14.30
2019,07,28,06,18,14.30
2019,07,28,06,19,14.30
2019,07,28,06,20,14.40
2019,07,28,06,21,14.40
2019,07,28,06,22,14.40
2019,07,28,06,23,14.50
2019,07,28,06,24,14.60
2019,07,28,06,25,14.60
2019,07,28,06,26,14.70
2019,07,28,06,27,14.70
2019,07,28,06,28,14.80
2019,07,28,06,29,14.80
2019,07,28,06,30,14.80
2019,07,28,06,31,14.90
2019,07,28,06,32,14.90
2019,07,28,06,33,14.90
2019,07,28,06,34,14.90
2019,07,28,06,35,14.90
2019,07,28,06,36,15.00
2019,07,28,06,37,15.00
2019,07,28,06,38,15.00
2019,07,28,06,39,15.00
2019,07,28,06,40,15.10
2019,07,28,06,41,15.10
2019,07,28,06,42,15.10
2019,07,28,06,43,15.10
2019,07,28,06,44,15.10
2019,07,28,06,45,15.10
2019,07,28,06,46,15.10
2019,07,28,06,47,15.20
2019,07,28,06,48,15.20
2019,07,28,06,49,15.20
2019,07,28,06,50,15.20
2019,07,28,06,51,15.20
2019,07,28,06,52,15.20
2019,07,28,06,53,15.20
2019,07,28,06,54,15.30
2019,07,28,06,55,15.30
2019,07,28,06,56,15.30
2019,07,28,06,57,15.30
2019,07,28,06,58,15.30
2019,07,28,06,59,15.30
2019,07,28,07,00,15.40
2019,07,28,07,01,15.40
2019,07,28,07,02,15.40
2019,07,28,07,03,15.40
2019,07,28,07,04,15.50
2019,07,28,07,05,15.50
2019,07,28,07,06,15.50
2019,07,28,07,07,15.50
2019,07,28,07,08,15.50
2019,07,28,07,09,15.60
2019,07,28,07,10,15.60
2019,07,28,07,11,15.60
2019,07,28,07,12,15.60
2019,07,28,07,13,15.60
2019,07,28,07,14,15.60
2019,07,28,07,15,15.60
2019,07,28,07,16,15.60
2019,07,28,07,17,15.60
2019,07,28,07,18,15.60
2019,07,28,07,19,15.70
2019,07,28,07,20,15.70
2019,07,28,07,21,15.70
2019,07,28,07,22,15.70
2019,07,28,07,23,15.70
2019,07,28,07,24,15.70
2019,07,28,07,25,15.80
2019,07,28,07,26,15.80
2019,07,28,07,27,15.80
2019,07,28,07,28,15.80
2019,07,28,07,29,15.90
2019,07,28,07,30,15.90
2019,07,28,07,31,16.00
2019,07,28,07,32,16.00
2019,07,28,07,33,16.10
2019,07,28,07,34,16.10
2019,07,28,07,35,16.20
2019,07,28,07,36,16.20
2019,07,28,07,37,16.20
2019,07,28,07,38,16.20
2019,07,28,07,39,16.30
2019,07,28,07,40,16.30
2019,07,28,07,41,16.40
2019,07,28,07,42,16.40
2019,07,28,07,43,16.40
2019,07,28,07,44,16.40
2019,07,28,07,45,16.40
2019,07,28,07,46,16.50
2019,07,28,07,47,16.50
2019,07,28,07,48,16.50
2019,07,28,07,49,16.60
2019,07,28,07,50,16.60
2019,07,28,07,51,16.60
2019,07,28,07,52,16.60
2019,07,28,07,53,16.60
2019,07,28,07,54,16.70
2019,07,28,07,55,16.70
2019,07,28,07,56,16.70
2019,07,28,07,57,16.70
2019,07,28,07,58,16.70
2019,07,28,07,59,16.80
2019,07,28,08,00,16.80
2019,07,28,08,01,16.80
2019,07,28,08,02,16.80
2019,07,28,08,03,16.90
2019,07,28,08,04,16.90
2019,07,28,08,05,16.90
2019,07,28,08,06,17.00
2019,07,28,08,07,17.00
2019,07,28,08,08,17.10
2019,07,28,08,09,17.10
2019,07,28,08,10,17.20
2019,07,28,08,11,17.20
2019,07,28,08,12,17.30
2019,07,28,08,13,17.40
2019,07,28,08,14,17.40
2019,07,28,08,15,17.50
2019,07,28,08,16,17.50
2019,07,28,08,17,17.50
2019,07,28,08,18,17.50
2019,07,28,08,19,17.60
2019,07,28,08,20,17.60
2019,07,28,08,21,17.60
2019,07,28,08,22,17.60
2019,07,28,08,23,17.60
2019,07,28,08,24,17.70
2019,07,28,08,25,17.80
2019,07,28,08,26,17.80
2019,07,28,08,27,17.90
2019,07,28,08,28,17.90
2019,07,28,08,29,17.90
2019,07,28,08,30,17.90
2019,07,28,08,31,18.00
2019,07,28,08,32,18.00
2019,07,28,08,33,18.00
2019,07,28,08,34,18.10
2019,07,28,08,35,18.20
2019,07,28,08,36,18.20
2019,07,28,08,37,18.30
2019,07,28,08,38,18.30
2019,07,28,08,39,18.30
2019,07,28,08,40,18.30
2019,07,28,08,41,18.30
2019,07,28,08,42,18.30
2019,07,28,08,43,18.40
2019,07,28,08,44,18.50
2019,07,28,08,45,18.60
2019,07,28,08,46,18.60
2019,07,28,08,47,18.60
2019,07,28,08,48,18.60
2019,07,28,08,49,18.60
2019,07,28,08,50,18.60
2019,07,28,08,51,18.70
2019,07,28,08,52,18.80
2019,07,28,08,53,18.90
2019,07,28,08,54,18.90
2019,07,28,08,55,19.00
2019,07,28,08,56,19.10
2019,07,28,08,57,19.20
2019,07,28,08,58,19.30
2019,07,28,08,59,19.30
2019,07,28,09,00,19.30
2019,07,28,09,01,19.40
2019,07,28,09,02,19.40
2019,07,28,09,03,19.40
2019,07,28,09,04,19.40
2019,07,28,09,05,19.40
2019,07,28,09,06,19.40
2019,07,28,09,07,19.40
2019,07,28,09,08,19.40
2019,07,28,09,09,19.40
2019,07,28,09,10,19.40
2019,07,28,09,11,19.40
2019,07,28,09,12,19.40
2019,07,28,09,13,19.40
2019,07,28,09,14,19.40
2019,07,28,09,15,19.40
2019,07,28,09,16,19.40
2019,07,28,09,17,19.40
2019,07,28,09,18,19.40
2019,07,28,09,19,19.40
2019,07,28,09,20,19.40
2019,07,28,09,21,19.50
2019,07,28,09,22,19.50
2019,07,28,09,23,19.60
2019,07,28,09,24,19.60
2019,07,28,09,25,19.60
2019,07,28,09,26,19.60
2019,07,28,09,27,19.60
2019,07,28,09,28,19.50
2019,07,28,09,29,19.50
2019,07,28,09,30,19.60
2019,07,28,09,31,19.70
2019,07,28,09,32,19.70
2019,07,28,09,33,19.70
2019,07,28,09,34,19.70
2019,07,28,09,35,19.80
2019,07,28,09,36,19.70
2019,07,28,09,37,19.70
2019,07,28,09,38,19.70
2019,07,28,09,39,19.70
2019,07,28,09,40,19.70
2019,07,28,09,41,19.70
2019,07,28,09,42,19.60
2019,07,28,09,43,19.60
2019,07,28,09,44,19.70
2019,07,28,09,45,19.70
2019,07,28,09,46,19.80
2019,07,28,09,47,19.80
2019,07,28,09,48,19.90
2019,07,28,09,49,19.90
2019,07,28,09,50,19.80
2019,07,28,09,51,19.80
2019,07,28,09,52,19.80
2019,07,28,09,53,19.80
2019,07,28,09,54,19.80
2019,07,28,09,55,19.80
2019,07,28,09,56,19.80
2019,07,28,09,57,19.80
2019,07,28,09,58,19.70
2019,07,28,09,59,19.70
2019,07,28,10,00,19.70
2019,07,28,10,01,19.80
2019,07,28,10,02,19.80
2019,07,28,10,03,19.70
2019,07,28,10,04,19.70
2019,07,28,10,05,19.70
2019,07,28,10,06,19.80
2019,07,28,10,07,19.90
2019,07,28,10,08,20.00
2019,07,28,10,09,20.00
2019,07,28,10,10,20.00
2019,07,28,10,11,19.90
2019,07,28,10,12,19.80
2019,07,28,10,13,19.70
2019,07,28,10,14,19.70
2019,07,28,10,15,19.70
2019,07,28,10,16,19.70
2019,07,28,10,17,19.70
2019,07,28,10,18,19.70
2019,07,28,10,19,19.70
2019,07,28,10,20,19.70
2019,07,28,10,21,19.80
2019,07,28,10,22,19.90
2019,07,28,10,23,19.90
2019,07,28,10,24,19.90
2019,07,28,10,25,19.80
2019,07,28,10,26,19.70
2019,07,28,10,27,19.70
2019,07,28,10,28,19.80
2019,07,28,10,29,19.90
2019,07,28,10,30,19.90
2019,07,28,10,31,20.00
2019,07,28,10,32,19.90
2019,07,28,10,33,19.90
2019,07,28,10,34,19.90
2019,07,28,10,35,19.80
2019,07,28,10,36,19.80
2019,07,28,10,37,19.70
2019,07,28,10,38,19.70
2019,07,28,10,39,19.70
2019,07,28,10,40,19.70
2019,07,28,10,41,19.80
2019,07,28,10,42,19.80
2019,07,28,10,43,19.80
2019,07,28,10,44,20.00
2019,07,28,10,45,20.10
2019,07,28,10,46,20.10
2019,07,28,10,47,20.20
2019,07,28,10,48,20.10
2019,07,28,10,49,20.00
2019,07,28,10,50,19.90
2019,07,28,10,51,20.00
2019,07,28,10,52,20.00
2019,07,28,10,53,19.90
2019,07,28,10,54,19.90
2019,07,28,10,55,19.90
2019,07,28,10,56,19.90
2019,07,28,10,57,19.90
2019,07,28,10,58,20.00
2019,07,28,10,59,20.10
2019,07,28,11,00,20.10
2019,07,28,11,01,20.10
2019,07,28,11,02,20.10
2019,07,28,11,03,20.00
2019,07,28,11,04,20.00
2019,07,28,11,05,20.00
2019,07,28,11,06,20.10
2019,07,28,11,07,20.20
2019,07,28,11,08,20.20
2019,07,28,11,09,20.20
2019,07,28,11,10,20.30
2019,07,28,11,11,20.30
2019,07,28,11,12,20.40
2019,07,28,11,13,20.40
2019,07,28,11,14,20.50
2019,07,28,11,15,20.50
2019,07,28,11,16,20.50
2019,07,28,11,17,20.60
2019,07,28,11,18,20.50
2019,07,28,11,19,20.50
2019,07,28,11,20,20.40
2019,07,28,11,21,20.30
2019,07,28,11,22,20.30
2019,07,28,11,23,20.40
2019,07,28,11,24,20.40
2019,07,28,11,25,20.40
2019,07,28,11,26,20.40
2019,07,28,11,27,20.30
2019,07,28,11,28,20.20
2019,07,28,11,29,20.20
2019,07,28,11,30,20.10
2019,07,28,11,31,20.10
2019,07,28,11,32,20.10
2019,07,28,11,33,20.10
2019,07,28,11,34,20.00
2019,07,28,11,35,19.90
2019,07,28,11,36,20.00
2019,07,28,11,37,20.00
2019,07,28,11,38,20.10
2019,07,28,11,39,20.00
2019,07,28,11,40,20.10
2019,07,28,11,41,20.10
2019,07,28,11,42,20.20
2019,07,28,11,43,20.20
2019,07,28,11,44,20.20
2019,07,28,11,45,20.20
2019,07,28,11,46,20.10
2019,07,28,11,47,20.10
2019,07,28,11,48,20.10
2019,07,28,11,49,20.10
2019,07,28,11,50,20.00
2019,07,28,11,51,20.00
2019,07,28,11,52,20.00
2019,07,28,11,53,20.00
2019,07,28,11,54,20.10
2019,07,28,11,55,20.10
2019,07,28,11,56,20.10
2019,07,28,11,57,20.10
2019,07,28,11,58,20.00
2019,07,28,11,59,19.90
2019,07,28,12,00,19.80
2019,07,28,12,01,19.70
2019,07,28,12,02,19.70
2019,07,28,12,03,19.60
2019,07,28,12,04,19.60
2019,07,28,12,05,19.60
2019,07,28,12,06,19.60
2019,07,28,12,07,19.80
2019,07,28,12,08,19.80
2019,07,28,12,09,19.80
2019,07,28,12,10,19.80
2019,07,28,12,11,19.80
2019,07,28,12,12,19.90
2019,07,28,12,13,19.90
2019,07,28,12,14,19.80
2019,07,28,12,15,19.90
2019,07,28,12,16,20.00
2019,07,28,12,17,20.10
2019,07,28,12,18,20.10
2019,07,28,12,19,20.20
2019,07,28,12,20,20.20
2019,07,28,12,21,20.20
2019,07,28,12,22,20.20
2019,07,28,12,23,20.30
2019,07,28,12,24,20.40
2019,07,28,12,25,20.30
2019,07,28,12,26,20.20
2019,07,28,12,27,20.20
2019,07,28,12,28,20.30
2019,07,28,12,29,20.20
2019,07,28,12,30,20.20
2019,07,28,12,31,20.10
2019,07,28,12,32,20.10
2019,07,28,12,33,20.10
2019,07,28,12,34,20.20
2019,07,28,12,35,20.30
2019,07,28,12,36,20.40
2019,07,28,12,37,20.40
2019,07,28,12,38,20.50
2019,07,28,12,39,20.50
2019,07,28,12,40,20.40
2019,07,28,12,41,20.40
2019,07,28,12,42,20.40
2019,07,28,12,43,20.40
2019,07,28,12,44,20.40
2019,07,28,12,45,20.40
2019,07,28,12,46,20.40
2019,07,28,12,47,20.40
2019,07,28,12,48,20.40
2019,07,28,12,49,20.40
2019,07,28,12,50,20.40
2019,07,28,12,51,20.40
2019,07,28,12,52,20.40
2019,07,28,12,53,20.40
2019,07,28,12,54,20.50
2019,07,28,12,55,20.60
2019,07,28,12,56,20.60
2019,07,28,12,57,20.50
2019,07,28,12,58,20.50
2019,07,28,12,59,20.60
2019,07,28,13,00,20.70
2019,07,28,13,01,20.70
2019,07,28,13,02,20.70
2019,07,28,13,03,20.80
2019,07,28,13,04,20.90
2019,07,28,13,05,20.90
2019,07,28,13,06,21.00
2019,07,28,13,07,21.10
2019,07,28,13,08,21.10
2019,07,28,13,09,21.10
2019,07,28,13,10,21.00
2019,07,28,13,11,20.90
2019,07,28,13,12,20.90
2019,07,28,13,13,20.90
2019,07,28,13,14,20.90
2019,07,28,13,15,20.90
2019,07,28,13,16,20.80
2019,07,28,13,17,20.60
2019,07,28,13,18,20.40
2019,07,28,13,19,20.20
2019,07,28,13,20,20.20
2019,07,28,13,21,20.20
2019,07,28,13,22,20.20
2019,07,28,13,23,20.20
2019,07,28,13,24,20.20
2019,07,28,13,25,20.20
2019,07,28,13,26,20.20
2019,07,28,13,27,20.30
2019,07,28,13,28,20.40
2019,07,28,13,29,20.50
2019,07,28,13,30,20.40
2019,07,28,13,31,20.30
2019,07,28,13,32,20.30
2019,07,28,13,33,20.30
2019,07,28,13,34,20.30
2019,07,28,13,35,20.40
2019,07,28,13,36,20.40
2019,07,28,13,37,20.40
2019,07,28,13,38,20.40
2019,07,28,13,39,20.40
2019,07,28,13,40,20.40
2019,07,28,13,41,20.40
2019,07,28,13,42,20.40
2019,07,28,13,43,20.30
2019,07,28,13,44,20.30
2019,07,28,13,45,20.30
2019,07,28,13,46,20.40
2019,07,28,13,47,20.40
2019,07,28,13,48,20.40
2019,07,28,13,49,20.40
2019,07,28,13,50,20.30
2019,07,28,13,51,20.30
2019,07,28,13,52,20.30
2019,07,28,13,53,20.40
2019,07,28,13,54,20.40
2019,07,28,13,55,20.40
2019,07,28,13,56,20.40
2019,07,28,13,57,20.40
2019,07,28,13,58,20.40
2019,07,28,13,59,20.40
2019,07,28,14,00,20.40
2019,07,28,14,01,20.40
2019,07,28,14,02,20.50
2019,07,28,14,03,20.50
2019,07,28,14,04,20.50
2019,07,28,14,05,20.40
2019,07,28,14,06,20.40
2019,07,28,14,07,20.40
2019,07,28,14,08,20.50
2019,07,28,14,09,20.60
2019,07,28,14,10,20.60
2019,07,28,14,11,20.50
2019,07,28,14,12,20.50
2019,07,28,14,13,20.60
2019,07,28,14,14,20.60
2019,07,28,14,15,20.60
2019,07,28,14,16,20.70
2019,07,28,14,17,20.80
2019,07,28,14,18,21.00
2019,07,28,14,19,21.20
2019,07,28,14,20,21.30
2019,07,28,14,21,21.30
2019,07,28,14,22,21.30
2019,07,28,14,23,21.20
2019,07,28,14,24,21.10
2019,07,28,14,25,21.10
2019,07,28,14,26,21.20
2019,07,28,14,27,21.20
2019,07,28,14,28,21.20
2019,07,28,14,29,21.20
2019,07,28,14,30,21.10
2019,07,28,14,31,21.00
2019,07,28,14,32,20.90
2019,07,28,14,33,21.00
2019,07,28,14,34,21.00
2019,07,28,14,35,21.10
2019,07,28,14,36,21.00
2019,07,28,14,37,21.00
2019,07,28,14,38,20.90
2019,07,28,14,39,20.90
2019,07,28,14,40,20.90
2019,07,28,14,41,20.90
2019,07,28,14,42,21.10
2019,07,28,14,43,21.30
2019,07,28,14,44,21.40
2019,07,28,14,45,21.60
2019,07,28,14,46,21.70
2019,07,28,14,47,21.80
2019,07,28,14,48,21.70
2019,07,28,14,49,21.80
2019,07,28,14,50,21.80
2019,07,28,14,51,21.80
2019,07,28,14,52,21.80
2019,07,28,14,53,21.80
2019,07,28,14,54,21.80
2019,07,28,14,55,21.80
2019,07,28,14,56,21.80
2019,07,28,14,57,21.80
2019,07,28,14,58,21.80
2019,07,28,14,59,21.70
2019,07,28,15,00,21.70
2019,07,28,15,01,21.70
2019,07,28,15,02,21.60
2019,07,28,15,03,21.50
2019,07,28,15,04,21.50
2019,07,28,15,05,21.60
2019,07,28,15,06,21.70
2019,07,28,15,07,21.70
2019,07,28,15,08,21.80
2019,07,28,15,09,21.80
2019,07,28,15,10,21.80
2019,07,28,15,11,21.90
2019,07,28,15,12,21.90
2019,07,28,15,13,21.90
2019,07,28,15,14,21.90
2019,07,28,15,15,22.00
2019,07,28,15,16,22.00
2019,07,28,15,17,22.00
2019,07,28,15,18,22.10
2019,07,28,15,19,22.10
2019,07,28,15,20,22.10
2019,07,28,15,21,22.20
2019,07,28,15,22,22.30
2019,07,28,15,23,22.30
2019,07,28,15,24,22.30
2019,07,28,15,25,22.30
2019,07,28,15,26,22.10
2019,07,28,15,27,22.10
2019,07,28,15,28,22.10
2019,07,28,15,29,22.10
2019,07,28,15,30,22.10
2019,07,28,15,31,22.20
2019,07,28,15,32,22.20
2019,07,28,15,33,22.20
2019,07,28,15,34,22.20
2019,07,28,15,35,22.30
2019,07,28,15,36,22.30
2019,07,28,15,37,22.20
2019,07,28,15,38,22.20
2019,07,28,15,39,22.10
2019,07,28,15,40,22.10
2019,07,28,15,41,22.20
2019,07,28,15,42,22.20
2019,07,28,15,43,22.20
2019,07,28,15,44,22.10
2019,07,28,15,45,22.10
2019,07,28,15,46,22.10
2019,07,28,15,47,22.20
2019,07,28,15,48,22.30
2019,07,28,15,49,22.30
2019,07,28,15,50,22.30
2019,07,28,15,51,22.20
2019,07,28,15,52,22.20
2019,07,28,15,53,22.20
2019,07,28,15,54,22.20
2019,07,28,15,55,22.20
2019,07,28,15,56,22.10
2019,07,28,15,57,22.10
2019,07,28,15,58,22.10
2019,07,28,15,59,22.00
2019,07,28,16,00,21.90
2019,07,28,16,01,21.80
2019,07,28,16,02,21.70
2019,07,28,16,03,21.70
2019,07,28,16,04,21.60
2019,07,28,16,05,21.50
2019,07,28,16,06,21.50
2019,07,28,16,07,21.40
2019,07,28,16,08,21.20
2019,07,28,16,09,21.20
2019,07,28,16,10,21.10
2019,07,28,16,11,21.10
2019,07,28,16,12,21.00
2019,07,28,16,13,20.90
2019,07,28,16,14,20.90
2019,07,28,16,15,20.90
2019,07,28,16,16,20.90
2019,07,28,16,17,20.90
2019,07,28,16,18,20.90
2019,07,28,16,19,20.90
2019,07,28,16,20,21.00
2019,07,28,16,21,21.10
2019,07,28,16,22,21.20
2019,07,28,16,23,21.20
2019,07,28,16,24,21.20
2019,07,28,16,25,21.20
2019,07,28,16,26,21.30
2019,07,28,16,27,21.30
2019,07,28,16,28,21.40
2019,07,28,16,29,21.50
2019,07,28,16,30,21.50
2019,07,28,16,31,21.40
2019,07,28,16,32,21.40
2019,07,28,16,33,21.40
2019,07,28,16,34,21.50
2019,07,28,16,35,21.50
2019,07,28,16,36,21.40
2019,07,28,16,37,21.40
2019,07,28,16,38,21.40
2019,07,28,16,39,21.40
2019,07,28,16,40,21.40
2019,07,28,16,41,21.40
2019,07,28,16,42,21.40
2019,07,28,16,43,21.40
2019,07,28,16,44,21.40
2019,07,28,16,45,21.30
2019,07,28,16,46,21.30
2019,07,28,16,47,21.30
2019,07,28,16,48,21.30
2019,07,28,16,49,21.30
2019,07,28,16,50,21.30
2019,07,28,16,51,21.30
2019,07,28,16,52,21.30
2019,07,28,16,53,21.30
2019,07,28,16,54,21.30
2019,07,28,16,55,21.30
2019,07,28,16,56,21.30
2019,07,28,16,57,21.30
2019,07,28,16,58,21.30
2019,07,28,16,59,21.30
2019,07,28,17,00,21.40
2019,07,28,17,01,21.40
2019,07,28,17,02,21.40
2019,07,28,17,03,21.50
2019,07,28,17,04,21.70
2019,07,28,17,05,21.80
2019,07,28,17,06,21.80
2019,07,28,17,07,21.70
2019,07,28,17,08,21.60
2019,07,28,17,09,21.60
2019,07,28,17,10,21.60
2019,07,28,17,11,21.60
2019,07,28,17,12,21.60
2019,07,28,17,13,21.70
2019,07,28,17,14,21.70
2019,07,28,17,15,21.70
2019,07,28,17,16,21.80
2019,07,28,17,17,21.80
2019,07,28,17,18,21.90
2019,07,28,17,19,22.00